Kirksville, MO

5:53 AM CDT on May 27, 2017 (GMT -0500)
Kirksville Regional

Weather History for KIRK - October, 2013

Change the Weather History Date:

Friday, October 25, 2013

  Actual Average Record
Temperature  
Mean Temperature 38 °F 50 °F  
Max Temperature 55 °F 61 °F 88 °F (1927)
Min Temperature 21 °F 39 °F 21 °F (2013)
Degree Days  
Heating Degree Days 27 15  
Month to date heating degree days 297 282  
Since 1 July heating degree days 367 389  
Cooling Degree Days 0 0  
Month to date cooling degree days 32 10  
Year to date cooling degree days 1028 937  
Moisture  
Dew Point 23 °F    
Average Humidity 60    
Maximum Humidity 96    
Minimum Humidity 24    
Precipitation  
Precipitation 0.00 in 0.11 in 1.23 in (1986)
Month to date precipitation 0.72 2.77  
Year to date precipitation 32.30 34.29  
Sea Level Pressure  
Sea Level Pressure 30.38 in    
Wind  
Wind Speed 8 mph (SW)    
Max Wind Speed 18 mph    
Max Gust Speed 25 mph    
Visibility 10 miles    
Events      
T = Trace of Precipitation, MM = Missing Value Source: NWS Daily Summary

Daily Weather History Graph

Daily Weather History Graph

Search for Another Location

Airport or City:

Trip Planner

Search our weather history database for the weather conditions in past years. The results will help you decide how hot, cold, wet, or windy it might be!

Date:

Astronomy

Oct. 25, 2013 Rise Set
Actual Time 7:31 AM CDT 6:15 PM CDT
Civil Twilight 7:04 AM CDT 6:43 PM CDT
Nautical Twilight 6:32 AM CDT 7:15 PM CDT
Astronomical Twilight 6:00 AM CDT 7:46 PM CDT
Moon 11:36 PM CDT (10/25) 1:12 PM CDT (10/25)
Length of Visible Light 11h 39m
Length of Day
10h 44m
Waning Gibbous, 62% of the Moon is Illuminated
Oct 25
Waning Gibbous
Oct 26
Last Quarter
Nov 3
New
Nov 9
First Quarter
Nov 17
Full

Hourly Weather History & Observations

Time (CDT) Temp. Windchill Dew Point Humidity Pressure Visibility Wind Dir Wind Speed Gust Speed Precip Events Conditions
12:55 AM 25.0 °F 19.3 °F 21.9 °F 88% 30.45 in 10.0 mi West 4.6 mph - N/A   Clear
1:55 AM 25.0 °F 18.1 °F 21.9 °F 88% 30.46 in 10.0 mi West 5.8 mph - N/A   Clear
2:55 AM 27.0 °F 21.6 °F 23.0 °F 85% 30.46 in 10.0 mi West 4.6 mph - N/A   Clear
3:55 AM 26.1 °F 20.5 °F 21.9 °F 84% 30.47 in 10.0 mi West 4.6 mph - N/A   Clear
4:55 AM 23.0 °F 18.4 °F 21.0 °F 92% 30.48 in 10.0 mi West 3.5 mph - N/A   Clear
5:55 AM 23.0 °F 18.4 °F 19.9 °F 88% 30.49 in 10.0 mi WSW 3.5 mph - N/A   Clear
6:55 AM 21.9 °F 17.2 °F 19.0 °F 89% 30.50 in 10.0 mi WSW 3.5 mph - N/A   Clear
7:55 AM 24.1 °F 18.2 °F 19.9 °F 84% 30.51 in 10.0 mi SW 4.6 mph - N/A   Clear
8:55 AM 32.0 °F 26.4 °F 26.1 °F 79% 30.50 in 10.0 mi SW 5.8 mph - N/A   Clear
9:55 AM 42.1 °F 39.2 °F 30.0 °F 62% 30.50 in 10.0 mi WSW 4.6 mph - N/A   Clear
10:55 AM 46.9 °F - 26.1 °F 44% 30.49 in 10.0 mi SW 9.2 mph - N/A   Clear
11:55 AM 50.0 °F - 25.0 °F 38% 30.47 in 10.0 mi SW 10.4 mph - N/A   Clear
12:55 PM 52.0 °F - 23.0 °F 32% 30.43 in 10.0 mi SW 10.4 mph 19.6 mph N/A   Clear
1:55 PM 54.0 °F - 21.0 °F 28% 30.39 in 10.0 mi SSW 12.7 mph 20.7 mph N/A   Clear
2:55 PM 55.0 °F - 19.9 °F 25% 30.35 in 10.0 mi WSW 12.7 mph 23.0 mph N/A   Clear
3:55 PM 55.0 °F - 19.9 °F 25% 30.31 in 10.0 mi SW 11.5 mph 19.6 mph N/A   Clear
4:55 PM 54.0 °F - 21.0 °F 28% 30.29 in 10.0 mi SW 10.4 mph 20.7 mph N/A   Clear
5:55 PM 51.1 °F - 21.0 °F 31% 30.27 in 10.0 mi SW 9.2 mph 18.4 mph N/A   Clear
6:55 PM 46.0 °F 42.5 °F 21.9 °F 39% 30.25 in 10.0 mi SSW 6.9 mph - N/A   Clear
7:55 PM 43.0 °F 38.8 °F 23.0 °F 45% 30.23 in 10.0 mi SSW 6.9 mph - N/A   Clear
8:55 PM 45.0 °F 40.6 °F 23.0 °F 42% 30.21 in 10.0 mi SSW 8.1 mph - N/A   Clear
9:55 PM 46.0 °F 40.6 °F 24.1 °F 42% 30.18 in 10.0 mi SSW 11.5 mph - N/A   Clear
10:55 PM 44.1 °F 39.5 °F 24.1 °F 45% 30.18 in 10.0 mi SW 8.1 mph - N/A   Clear
11:55 PM 44.1 °F 38.1 °F 25.0 °F 47% 30.15 in 10.0 mi SW 11.5 mph - N/A   Clear